Flag for Germany Weather past 2 weeks in Offenburg, Baden-Württemberg, Germany

Now
52 °F

Light rain. Overcast.


Feels Like: 52 °F
Forecast: 48 / 71 °F
Wind: 1 mph from West

Location: Lahr


UV Index: 3 (Moderate)

Visibility: 3 mi


Pressure: 30.10 "Hg

Humidity: 98%

Dew point: 52 °F

Location of OffenburgLocation

Historic Weather in Offenburg

°F

Offenburg temperature yesterday

Maximum temperature yesterday: 70 °F (at 3:00 PM)
Minimum temperature yesterday: 43 °F (at 7:00 AM)
Average temperature yesterday: 56 °F

Past Weeks' High & Low Weather Summary

 TemperatureHumidityPressure
High71 °F (Apr 11, 5:00 PM)100% (Apr 22, 7:00 AM)30.39 "Hg (Apr 22, 7:00 AM)
Low31 °F (Apr 17, 6:00 AM)28% (Apr 17, 3:00 PM)29.63 "Hg (Apr 20, 6:00 PM)
Average51 °F69%30.04 "Hg
* Reported Midnight between Apr 8 and Apr 9 — Midnight between Apr 23 and Apr 24, Offenburg, Weather by CustomWeather, © 2014

Note: Actual official high and low records may vary slightly from our data, if they occured in-between our weather recording intervals... More about our weather records

Advertising

Historic Weather Conditions — Data for Previous 24 hours

 ConditionsComfort  
Time TempWeatherWind HumidityBarometerVisibility
12:00 AM
Apr 24
50 °FPassing clouds.1 mph99%30.10 "Hg5 mi
11:00 PM
Apr 23
50 °FFog.1 mph97%30.10 "Hg4 mi
10:00 PM51 °FClear.2 mph96%30.10 "Hg7 mi
9:00 PM55 °FPassing clouds.2 mph89%30.08 "Hg40 mi
8:00 PM57 °FScattered clouds.5 mph85%30.06 "Hg47 mi
7:00 PM61 °FScattered clouds.5 mph74%30.05 "Hg37 mi
6:00 PM59 °FThunderstorms. Partly sunny.2 mph80%30.05 "Hg22 mi
5:00 PM58 °FThundershowers. Overcast.6 mph81%30.07 "Hg22 mi
4:00 PM63 °FThundershowers. Overcast.6 mph78%30.06 "Hg9 mi
3:00 PM70 °FThunderstorms. Partly sunny.1 mph46%30.05 "Hg31 mi
2:00 PM69 °FScattered clouds.3 mph49%30.06 "Hg28 mi
1:00 PM67 °FScattered clouds.3 mph56%30.08 "Hg25 mi
12:00 PM65 °FScattered clouds.1 mph63%30.09 "Hg25 mi
11:00 AM63 °FScattered clouds.1 mph61%30.10 "Hg28 mi
10:00 AM58 °FScattered clouds.1 mph71%30.10 "Hg31 mi
9:00 AM57 °FPartly sunny.1 mph72%30.11 "Hg31 mi
8:00 AM50 °FScattered clouds.1 mph89%30.11 "Hg31 mi
7:00 AM43 °FFog.No wind98%30.11 "Hg31 mi
6:00 AM45 °FFog.1 mph97%30.09 "Hg31 mi
5:00 AM46 °FPassing clouds.1 mph93%30.08 "Hg15 mi
4:00 AM47 °FOvercast.1 mph88%30.07 "Hg17 mi
3:00 AM47 °FClear.1 mph90%30.06 "Hg19 mi
2:00 AM49 °FOvercast.2 mph86%30.04 "Hg28 mi
Weather by CustomWeather, © 2014

See weather overview